Weather in Shahrinaw

Tajikistan     38°34′12″N   68°20′04″E
temp.,
°C
wind,
m/s
gust,
m/s
humid.,
%
clouds,
%
prec.,
mm/h
press.,
hPa
HPBL,
m
4 july, mon
mon423:00+33ne22130 0.0 99615
02:00+31ne33140 0.0 99621
05:00+30ene22160 0.0 99817
08:00+30wsw44200 0.0 1002562
11:00+35sw43170 0.0 10021580
14:00+38ssw53140 0.0 10012240
17:00+38ssw33130 0.0 9992434
20:00+33se23190 0.0 100034
5 july, tue
tue523:00+29ene34240 0.0 100248
02:00+27ene22280 0.0 100413
05:00+25e34300 0.0 100553
08:00+29sw32210 0.0 1008838
11:00+31wsw43180 0.0 10071589
14:00+35wsw43150 0.0 10052363
17:00+35ssw53140 0.0 10032766
20:00+30ssw22190 0.0 100423
6 july, wed
wed623:00+27nne11220 0.0 100611
02:00+25ene22240 0.0 100613
05:00+23ene22270 0.0 100617
08:00+28e22190 0.0 1008467
11:00+33sw33140 0.0 10072425
14:00+36sw53120 0.0 10053053
17:00+35wsw53120 0.0 10042793
20:00+30wsw33180 0.0 100525
7 july, thu
thu723:00+27nne22210 0.0 100812
02:00+25ne33230 0.0 100838
05:00+24ene23250 0.0 100926
08:00+29ese22180 0.0 1011443
11:00+33sse22130 0.0 10092467
14:00+36sw53100 0.0 10073512
17:00+36sw54100 0.0 10053196
20:00+30wsw22140 0.0 100615
8 july, fri
fri823:00+26nne22180 0.0 100811
02:00+24ne11200 0.0 100711
05:00+23ne22220 0.0 100812
08:00+27s11170 0.0 1008456
11:00+32sw43120 0.0 10071635
14:00+34sw54110 0.0 10052425
17:00+34wsw54110 0.0 10032537
20:00+29sw23160 0.0 100423